This is the latest recevied weather packets stored in our database for station/object IW1RCO-13. If no packets are shown the sender has not sent any weather packets the latest 10 day(s).
| Time | Temp. | Humidity | Pressure | Rain* | Wind** | Luminosity | Snow |
|---|---|---|---|---|---|---|---|
| 1788008369 | 26.11° C | 56% | 1014.4 hPa | - | - | - | - |
| 1788007769 | 26.67° C | 59% | 1014.1 hPa | - | - | - | - |
| 1788007465 | 27.22° C | 58% | 1014.9 hPa | - | - | - | - |
| 1788007168 | 27.78° C | 60% | 1014.5 hPa | - | - | - | - |
| 1788006872 | 27.22° C | 59% | 1014.1 hPa | - | - | - | - |
| 1788006568 | 27.78° C | 57% | 1015 hPa | - | - | - | - |
| 1788006271 | 27.22° C | 56% | 1013.8 hPa | - | - | - | - |
| 1788005968 | 27.22° C | 57% | 1014.7 hPa | - | - | - | - |
| 1788005671 | 27.22° C | 57% | 1014.6 hPa | - | - | - | - |
| 1788005368 | 27.22° C | 54% | 1014.4 hPa | - | - | - | - |
| 1788005071 | 27.78° C | 59% | 1015 hPa | - | - | - | - |
| 1788004767 | 26.67° C | 60% | 1015.1 hPa | - | - | - | - |
| 1788004471 | 26.11° C | 63% | 1015.1 hPa | - | - | - | - |
| 1788004167 | 26.11° C | 64% | 1015.6 hPa | - | - | - | - |
| 1788003870 | 26.67° C | 65% | 1015.2 hPa | - | - | - | - |
| 1788003567 | 26.11° C | 65% | 1015.1 hPa | - | - | - | - |
| 1788003270 | 26.11° C | 67% | 1015.2 hPa | - | - | - | - |
| 1788002967 | 26.11° C | 66% | 1015.5 hPa | - | - | - | - |
| 1788002670 | 26.11° C | 67% | 1015.1 hPa | - | - | - | - |
| 1788002366 | 25.56° C | 65% | 1015.5 hPa | - | - | - | - |
| 1788002070 | 25.56° C | 68% | 1015.5 hPa | - | - | - | - |
| 1787999965 | 25° C | 69% | 1014.8 hPa | - | - | - | - |
| 1787999668 | 26.11° C | 66% | 1014.8 hPa | - | - | - | - |
| 1787999365 | 25.56° C | 70% | 1015.1 hPa | - | - | - | - |
| 1787999068 | 24.44° C | 70% | 1015 hPa | - | - | - | - |
* Rain since midnight (hover to see other rain measurements)
** Current wind speed in m/s (hover to see current wind gust speed)